This is the latest recevied weather packets stored in our database for station/object TB1YZC-13. If no packets are shown the sender has not sent any weather packets the latest 10 day(s).
| Time | Temp. | Humidity | Pressure | Rain* | Wind** | Luminosity | Snow |
|---|---|---|---|---|---|---|---|
| 1788529167 | 26.11° C | 56% | 1017.3 hPa | - | - | - | - |
| 1788528563 | 26.11° C | 57% | 1017.3 hPa | - | - | - | - |
| 1788527960 | 26.11° C | 59% | 1017.3 hPa | - | - | - | - |
| 1788527357 | 26.11° C | 58% | 1017.4 hPa | - | - | - | - |
| 1788526754 | 26.11° C | 56% | 1017.3 hPa | - | - | - | - |
| 1788526151 | 26.67° C | 55% | 1017.2 hPa | - | - | - | - |
| 1788525548 | 27.78° C | 53% | 1017.1 hPa | - | - | - | - |
| 1788524944 | 28.33° C | 48% | 1017.1 hPa | - | - | - | - |
| 1788524341 | 28.33° C | 48% | 1017.1 hPa | - | - | - | - |
| 1788523738 | 28.89° C | 45% | 1017.2 hPa | - | - | - | - |
| 1788523134 | 28.33° C | 52% | 1017.2 hPa | - | - | - | - |
| 1788522531 | 27.78° C | 54% | 1017.5 hPa | - | - | - | - |
| 1788521928 | 27.22° C | 52% | 1017.6 hPa | - | - | - | - |
| 1788521325 | 27.22° C | 53% | 1017.5 hPa | - | - | - | - |
| 1788520722 | 27.22° C | 53% | 1017.4 hPa | - | - | - | - |
| 1788520118 | 27.22° C | 55% | 1017.5 hPa | - | - | - | - |
| 1788519515 | 26.67° C | 57% | 1017.5 hPa | - | - | - | - |
| 1788518912 | 26.67° C | 56% | 1017.6 hPa | - | - | - | - |
| 1788518309 | 27.22° C | 55% | 1017.6 hPa | - | - | - | - |
| 1788517706 | 27.22° C | 57% | 1017.4 hPa | - | - | - | - |
| 1788517103 | 26.67° C | 53% | 1017.5 hPa | - | - | - | - |
| 1788516500 | 26.67° C | 54% | 1017.5 hPa | - | - | - | - |
| 1788515896 | 26.67° C | 58% | 1017.4 hPa | - | - | - | - |
| 1788515293 | 26.67° C | 57% | 1017.4 hPa | - | - | - | - |
| 1788514690 | 26.11° C | 60% | 1017.5 hPa | - | - | - | - |
* Rain since midnight (hover to see other rain measurements)
** Current wind speed in m/s (hover to see current wind gust speed)